| time (UTC) | temp C | wind direction | speed KPH | gust KPH | rain 1hr cm | rain 24hr cm | rain mn cm | humidity % | barometer mb |
| 20260902153535 | 28 | 225 | 6.4 | 16.1 | 0.00 | 0.00 | 0.00 | 55 | 1018.5 |
| 20260902153051 | 28 | 287 | 8.0 | 16.1 | 0.00 | 0.00 | 0.00 | 56 | 1018.5 |
| 20260902152534 | 28 | 199 | 8.0 | 14.5 | 0.00 | 0.00 | 0.00 | 56 | 1018.6 |
| 20260902152034 | 28 | 242 | 6.4 | 16.1 | 0.00 | 0.00 | 0.00 | 56 | 1018.7 |
| 20260902151611 | 28 | 225 | 9.7 | 16.1 | 0.00 | 0.00 | 0.00 | 55 | 1018.8 |
| 20260902151036 | 28 | 248 | 6.4 | 19.3 | 0.00 | 0.00 | 0.00 | 55 | 1018.8 |
| 20260902150535 | 28 | 238 | 6.4 | 19.3 | 0.00 | 0.00 | 0.00 | 54 | 1018.8 |
| 20260902150056 | 28 | 280 | 9.7 | 19.3 | 0.00 | 0.00 | 0.00 | 54 | 1018.7 |
| 20260902145543 | 28 | 238 | 6.4 | 17.7 | 0.00 | 0.00 | 0.00 | 55 | 1018.8 |
| 20260902145034 | 28 | 211 | 6.4 | 17.7 | 0.00 | 0.00 | 0.00 | 53 | 1018.8 |
| 20260902144551 | 28 | 237 | 9.7 | 19.3 | 0.00 | 0.00 | 0.00 | 55 | 1018.8 |
| 20260902144034 | 28 | 217 | 11.3 | 19.3 | 0.00 | 0.00 | 0.00 | 55 | 1019.0 |
| 20260902143539 | 28 | 227 | 9.7 | 16.1 | 0.00 | 0.00 | 0.00 | 57 | 1018.9 |
| 20260902143110 | 28 | 237 | 8.0 | 16.1 | 0.00 | 0.00 | 0.00 | 56 | 1019.0 |
| 20260902142534 | 28 | 250 | 8.0 | 17.7 | 0.00 | 0.00 | 0.00 | 55 | 1019.1 |
| 20260902142035 | 28 | 252 | 8.0 | 17.7 | 0.00 | 0.00 | 0.00 | 51 | 1019.0 |
| 20260902141556 | 28 | 271 | 8.0 | 19.3 | 0.00 | 0.00 | 0.00 | 52 | 1019.1 |
| 20260902141036 | 28 | 261 | 8.0 | 19.3 | 0.00 | 0.00 | 0.00 | 54 | 1019.1 |
| 20260902140535 | 28 | 273 | 8.0 | 19.3 | 0.00 | 0.00 | 0.00 | 55 | 1019.2 |
| 20260902140056 | 28 | 274 | 8.0 | 19.3 | 0.00 | 0.00 | 0.00 | 54 | 1019.2 |
| 20260902135535 | 28 | 246 | 8.0 | 19.3 | 0.00 | 0.00 | 0.00 | 54 | 1019.2 |
| 20260902135034 | 28 | 242 | 8.0 | 17.7 | 0.00 | 0.00 | 0.00 | 52 | 1019.2 |
| 20260902134558 | 28 | 247 | 9.7 | 17.7 | 0.00 | 0.00 | 0.00 | 51 | 1019.3 |
| 20260902134035 | 28 | 236 | 11.3 | 17.7 | 0.00 | 0.00 | 0.00 | 52 | 1019.2 |
| 20260902133535 | 28 | 264 | 6.4 | 16.1 | 0.00 | 0.00 | 0.00 | 51 | 1019.2 |
| 20260902133106 | 28 | 221 | 6.4 | 16.1 | 0.00 | 0.00 | 0.00 | 51 | 1019.3 |
| 20260902132539 | 28 | 271 | 9.7 | 16.1 | 0.00 | 0.00 | 0.00 | 54 | 1019.4 |
| 20260902132035 | 28 | 221 | 8.0 | 14.5 | 0.00 | 0.00 | 0.00 | 54 | 1019.5 |
| 20260902131605 | 28 | 214 | 8.0 | 16.1 | 0.00 | 0.00 | 0.00 | 53 | 1019.6 |
| 20260902131036 | 28 | 267 | 8.0 | 17.7 | 0.00 | 0.00 | 0.00 | 55 | 1019.5 |
| 20260902130537 | 28 | 244 | 9.7 | 17.7 | 0.00 | 0.00 | 0.00 | 53 | 1019.7 |
| 20260902130053 | 28 | 244 | 8.0 | 16.1 | 0.00 | 0.00 | 0.00 | 53 | 1019.7 |
| 20260902125537 | 28 | 257 | 8.0 | 19.3 | 0.00 | 0.00 | 0.00 | 53 | 1019.6 |
| 20260902125035 | 28 | 267 | 9.7 | 20.9 | 0.00 | 0.00 | 0.00 | 52 | 1019.8 |
| 20260902124553 | 28 | 257 | 9.7 | 20.9 | 0.00 | 0.00 | 0.00 | 54 | 1019.8 |
| 20260902124034 | 28 | 247 | 9.7 | 16.1 | 0.00 | 0.00 | 0.00 | 53 | 1019.8 |
| 20260902123536 | 28 | 261 | 9.7 | 16.1 | 0.00 | 0.00 | 0.00 | 54 | 1019.9 |
| 20260902123057 | 28 | 259 | 8.0 | 16.1 | 0.00 | 0.00 | 0.00 | 54 | 1019.9 |
| 20260902122534 | 28 | 265 | 8.0 | 16.1 | 0.00 | 0.00 | 0.00 | 56 | 1020.0 |
| 20260902122036 | 28 | 261 | 6.4 | 19.3 | 0.00 | 0.00 | 0.00 | 55 | 1020.1 |
| 20260902121556 | 27 | 250 | 8.0 | 19.3 | 0.00 | 0.00 | 0.00 | 56 | 1020.2 |
| 20260902121035 | 27 | 260 | 8.0 | 19.3 | 0.00 | 0.00 | 0.00 | 56 | 1020.2 |
| 20260902120536 | 27 | 273 | 6.4 | 16.1 | 0.00 | 0.00 | 0.00 | 55 | 1020.3 |
| 20260902120104 | 28 | 248 | 9.7 | 16.1 | 0.00 | 0.00 | 0.00 | 55 | 1020.3 |
| 20260902115537 | 27 | 179 | 6.4 | 12.9 | 0.00 | 0.00 | 0.00 | 57 | 1020.4 |
| 20260902115035 | 27 | 243 | 6.4 | 12.9 | 0.00 | 0.00 | 0.00 | 55 | 1020.4 |
| 20260902114600 | 27 | 236 | 6.4 | 14.5 | 0.00 | 0.00 | 0.00 | 56 | 1020.4 |
| 20260902114036 | 27 | 213 | 8.0 | 14.5 | 0.00 | 0.00 | 0.00 | 56 | 1020.5 |
| 20260902113535 | 27 | 259 | 6.4 | 14.5 | 0.00 | 0.00 | 0.00 | 56 | 1020.5 |
| 20260902113052 | 27 | 201 | 6.4 | 14.5 | 0.00 | 0.00 | 0.00 | 59 | 1020.4 |
| 20260902112535 | 27 | 258 | 6.4 | 14.5 | 0.00 | 0.00 | 0.00 | 57 | 1020.6 |
| 20260902112037 | 26 | 221 | 6.4 | 14.5 | 0.00 | 0.00 | 0.00 | 59 | 1020.6 |
| 20260902111557 | 26 | 252 | 8.0 | 14.5 | 0.00 | 0.00 | 0.00 | 58 | 1020.8 |
| 20260902111038 | 26 | 272 | 8.0 | 14.5 | 0.00 | 0.00 | 0.00 | 58 | 1020.9 |
| 20260902110536 | 26 | 244 | 6.4 | 14.5 | 0.00 | 0.00 | 0.00 | 59 | 1021.0 |
| 20260902110058 | 25 | 222 | 8.0 | 12.9 | 0.00 | 0.00 | 0.00 | 62 | 1021.0 |
| 20260902105535 | 25 | 261 | 6.4 | 12.9 | 0.00 | 0.00 | 0.00 | 65 | 1021.1 |
| 20260902105035 | 25 | 257 | 6.4 | 12.9 | 0.00 | 0.00 | 0.00 | 65 | 1021.2 |
| 20260902104615 | 25 | 238 | 3.2 | 9.7 | 0.00 | 0.00 | 0.00 | 65 | 1021.2 |
| 20260902104034 | 25 | 231 | 4.8 | 9.7 | 0.00 | 0.00 | 0.00 | 64 | 1021.3 |
| 20260902103535 | 25 | 245 | 3.2 | 9.7 | 0.00 | 0.00 | 0.00 | 63 | 1021.3 |
| 20260902103101 | 25 | 228 | 3.2 | 9.7 | 0.00 | 0.00 | 0.00 | 64 | 1021.3 |
| 20260902102535 | 25 | 180 | 4.8 | 9.7 | 0.00 | 0.00 | 0.00 | 64 | 1021.3 |
| 20260902102036 | 25 | 164 | 1.6 | 6.4 | 0.00 | 0.00 | 0.00 | 64 | 1021.4 |
| 20260902101558 | 25 | 180 | 1.6 | 8.0 | 0.00 | 0.00 | 0.00 | 65 | 1021.4 |
| 20260902101035 | 25 | 194 | 3.2 | 9.7 | 0.00 | 0.00 | 0.00 | 62 | 1021.4 |
| 20260902100535 | 25 | 163 | 3.2 | 9.7 | 0.00 | 0.00 | 0.00 | 64 | 1021.4 |
| 20260902100118 | 25 | 180 | 4.8 | 9.7 | 0.00 | 0.00 | 0.00 | 62 | 1021.4 |
| 20260902095534 | 25 | 169 | 3.2 | 9.7 | 0.00 | 0.00 | 0.00 | 66 | 1021.5 |
| 20260902095035 | 25 | 175 | 4.8 | 9.7 | 0.00 | 0.00 | 0.00 | 64 | 1021.5 |
| 20260902094553 | 25 | 150 | 1.6 | 8.0 | 0.00 | 0.00 | 0.00 | 67 | 1021.4 |
| 20260902094035 | 24 | 178 | 3.2 | 8.0 | 0.00 | 0.00 | 0.00 | 66 | 1021.5 |
| 20260902093535 | 24 | 250 | 1.6 | 9.7 | 0.00 | 0.00 | 0.00 | 66 | 1021.5 |
| 20260902093120 | 23 | 192 | 1.6 | 9.7 | 0.00 | 0.00 | 0.00 | 66 | 1021.5 |
| 20260902092534 | 23 | 175 | 3.2 | 6.4 | 0.00 | 0.00 | 0.00 | 68 | 1021.5 |
| 20260902092034 | 23 | 175 | 0.0 | 6.4 | 0.00 | 0.00 | 0.00 | 69 | 1021.6 |
| 20260902091606 | 23 | 172 | 0.0 | 6.4 | 0.00 | 0.00 | 0.00 | 69 | 1021.6 |
| 20260902091036 | 23 | 168 | 1.6 | 6.4 | 0.00 | 0.00 | 0.00 | 68 | 1021.7 |
| 20260902090535 | 22 | 0 | 1.6 | 6.4 | 0.00 | 0.00 | 0.00 | 68 | 1021.9 |
| 20260902090100 | 22 | 240 | 1.6 | 6.4 | 0.00 | 0.00 | 0.00 | 69 | 1021.9 |
| 20260902085535 | 22 | 173 | 1.6 | 8.0 | 0.00 | 0.00 | 0.00 | 70 | 1021.9 |
| 20260902085034 | 22 | 132 | 1.6 | 8.0 | 0.00 | 0.00 | 0.00 | 69 | 1021.9 |
| 20260902084556 | 22 | 175 | 3.2 | 8.0 | 0.00 | 0.00 | 0.00 | 71 | 1021.8 |
| 20260902084035 | 22 | 236 | 3.2 | 6.4 | 0.00 | 0.00 | 0.00 | 69 | 1021.9 |
| 20260902083534 | 22 | 225 | 3.2 | 6.4 | 0.00 | 0.00 | 0.00 | 71 | 1021.8 |
| 20260902083110 | 22 | 213 | 1.6 | 6.4 | 0.00 | 0.00 | 0.00 | 71 | 1021.8 |
| 20260902082534 | 22 | 162 | 0.0 | 4.8 | 0.00 | 0.00 | 0.00 | 72 | 1021.8 |
| 20260902082036 | 22 | 223 | 1.6 | 4.8 | 0.00 | 0.00 | 0.00 | 70 | 1021.8 |
| 20260902081612 | 21 | 0 | 1.6 | 4.8 | 0.00 | 0.00 | 0.00 | 70 | 1021.7 |
| 20260902081036 | 21 | 0 | 0.0 | 3.2 | 0.00 | 0.00 | 0.00 | 74 | 1021.8 |
| 20260902080536 | 21 | 0 | 0.0 | 4.8 | 0.00 | 0.00 | 0.00 | 72 | 1021.9 |
| 20260902080101 | 21 | 198 | 0.0 | 4.8 | 0.00 | 0.00 | 0.00 | 77 | 1021.7 |
| 20260902075534 | 21 | 0 | 1.6 | 4.8 | 0.00 | 0.00 | 0.00 | 76 | 1021.7 |
| 20260902075034 | 21 | 0 | 1.6 | 4.8 | 0.00 | 0.00 | 0.00 | 76 | 1021.7 |
| 20260902074606 | 20 | 153 | 0.0 | 3.2 | 0.00 | 0.00 | 0.00 | 79 | 1021.6 |
| 20260902074034 | 20 | 0 | 0.0 | 4.8 | 0.00 | 0.00 | 0.00 | 78 | 1021.6 |
| 20260902073536 | 20 | 0 | 1.6 | 4.8 | 0.00 | 0.00 | 0.00 | 76 | 1021.5 |
| 20260902073059 | 20 | 115 | 1.6 | 6.4 | 0.00 | 0.00 | 0.00 | 77 | 1021.5 |
| 20260902072535 | 20 | 105 | 1.6 | 6.4 | 0.00 | 0.00 | 0.00 | 74 | 1021.5 |
| 20260902072035 | 20 | 201 | 1.6 | 3.2 | 0.00 | 0.00 | 0.00 | 74 | 1021.6 |
| 20260902071613 | 20 | 276 | 0.0 | 3.2 | 0.00 | 0.00 | 0.00 | 75 | 1021.5 |
| 20260902071035 | 20 | 276 | 0.0 | 1.6 | 0.00 | 0.00 | 0.00 | 74 | 1021.6 |
| 20260902070534 | 20 | 0 | 0.0 | 1.6 | 0.00 | 0.00 | 0.00 | 76 | 1021.5 |
| 20260902070108 | 20 | 0 | 0.0 | 1.6 | 0.00 | 0.00 | 0.00 | 76 | 1021.5 |
| 20260902065537 | 20 | 0 | 0.0 | 1.6 | 0.00 | 0.00 | 0.00 | 75 | 1021.6 |
| 20260902065038 | 20 | 0 | 0.0 | 1.6 | 0.00 | 0.00 | 0.00 | 76 | 1021.6 |
| 20260902064612 | 20 | 240 | 0.0 | 3.2 | 0.00 | 0.00 | 0.00 | 76 | 1021.6 |
| 20260902064034 | 20 | 0 | 0.0 | 3.2 | 0.00 | 0.00 | 0.00 | 77 | 1021.5 |
| 20260902063534 | 20 | 198 | 0.0 | 4.8 | 0.00 | 0.00 | 0.00 | 78 | 1021.5 |
| 20260902063131 | 20 | 0 | 0.0 | 4.8 | 0.00 | 0.00 | 0.00 | 78 | 1021.5 |
| 20260902062535 | 20 | 0 | 1.6 | 4.8 | 0.00 | 0.00 | 0.00 | 78 | 1021.4 |
| 20260902062034 | 20 | 248 | 1.6 | 3.2 | 0.00 | 0.00 | 0.00 | 77 | 1021.4 |
| 20260902061601 | 20 | 267 | 0.0 | 3.2 | 0.00 | 0.00 | 0.00 | 78 | 1021.4 |
| 20260902061037 | 20 | 0 | 0.0 | 3.2 | 0.00 | 0.00 | 0.00 | 78 | 1021.5 |
| 20260902060534 | 19 | 0 | 0.0 | 4.8 | 0.00 | 0.00 | 0.00 | 79 | 1021.5 |
| 20260902060137 | 19 | 0 | 0.0 | 6.4 | 0.00 | 0.00 | 0.00 | 80 | 1021.5 |
| 20260902055535 | 19 | 35 | 1.6 | 8.0 | 0.00 | 0.00 | 0.00 | 80 | 1021.4 |
| 20260902055036 | 18 | 63 | 3.2 | 9.7 | 0.00 | 0.00 | 0.00 | 81 | 1021.5 |
| 20260902054600 | 18 | 70 | 4.8 | 9.7 | 0.00 | 0.00 | 0.00 | 81 | 1021.4 |
| 20260902054038 | 18 | 87 | 0.0 | 9.7 | 0.00 | 0.00 | 0.00 | 82 | 1021.3 |
| 20260902053618 | 18 | 0 | 0.0 | 3.2 | 0.00 | 0.00 | 0.00 | 82 | 1021.3 |
| 20260902053105 | 18 | 0 | 0.0 | 3.2 | 0.00 | 0.00 | 0.00 | 82 | 1021.2 |
| 20260902052534 | 18 | 0 | 0.0 | 3.2 | 0.00 | 0.00 | 0.00 | 81 | 1021.2 |
| 20260902052034 | 18 | 28 | 1.6 | 8.0 | 0.00 | 0.00 | 0.00 | 81 | 1021.1 |
| 20260902051607 | 18 | 47 | 1.6 | 8.0 | 0.00 | 0.00 | 0.00 | 82 | 1021.1 |
| 20260902051035 | 18 | 72 | 3.2 | 6.4 | 0.00 | 0.00 | 0.00 | 82 | 1021.3 |
| 20260902050535 | 18 | 0 | 0.0 | 3.2 | 0.00 | 0.00 | 0.00 | 82 | 1021.3 |
| 20260902050056 | 18 | 34 | 1.6 | 3.2 | 0.00 | 0.00 | 0.00 | 82 | 1021.2 |
| 20260902045537 | 18 | 0 | 0.0 | 4.8 | 0.00 | 0.00 | 0.00 | 82 | 1021.1 |
| 20260902045035 | 18 | 0 | 0.0 | 4.8 | 0.00 | 0.00 | 0.00 | 82 | 1021.2 |
| 20260902044554 | 18 | 296 | 1.6 | 4.8 | 0.00 | 0.00 | 0.00 | 81 | 1021.2 |
| 20260902044035 | 18 | 12 | 1.6 | 4.8 | 0.00 | 0.00 | 0.00 | 81 | 1021.0 |
| 20260902043536 | 18 | 9 | 1.6 | 4.8 | 0.00 | 0.00 | 0.00 | 81 | 1020.9 |
| 20260902043109 | 18 | 334 | 1.6 | 4.8 | 0.00 | 0.00 | 0.00 | 81 | 1021.0 |
| 20260902042537 | 18 | 355 | 1.6 | 4.8 | 0.00 | 0.00 | 0.00 | 81 | 1020.9 |
| 20260902042037 | 18 | 342 | 1.6 | 4.8 | 0.00 | 0.00 | 0.00 | 80 | 1020.7 |
| 20260902041600 | 18 | 350 | 1.6 | 4.8 | 0.00 | 0.00 | 0.00 | 80 | 1020.6 |
| 20260902041034 | 18 | 15 | 1.6 | 4.8 | 0.00 | 0.00 | 0.00 | 80 | 1020.8 |
| 20260902040535 | 18 | 351 | 1.6 | 3.2 | 0.00 | 0.00 | 0.00 | 80 | 1020.6 |
| 20260902040057 | 18 | 355 | 1.6 | 4.8 | 0.00 | 0.00 | 0.00 | 79 | 1020.5 |
| 20260902035534 | 18 | 348 | 1.6 | 4.8 | 0.00 | 0.00 | 0.00 | 79 | 1020.6 |
| 20260902035037 | 18 | 343 | 1.6 | 4.8 | 0.00 | 0.00 | 0.00 | 80 | 1020.5 |
| 20260902034604 | 19 | 340 | 1.6 | 4.8 | 0.00 | 0.00 | 0.00 | 79 | 1020.6 |
| 20260902034034 | 19 | 284 | 0.0 | 4.8 | 0.00 | 0.00 | 0.00 | 79 | 1020.7 |
| 20260902033534 | 19 | 42 | 1.6 | 4.8 | 0.00 | 0.00 | 0.00 | 79 | 1020.6 |
| 20260902033053 | 19 | 0 | 1.6 | 4.8 | 0.00 | 0.00 | 0.00 | 79 | 1020.5 |
| 20260902032540 | 19 | 352 | 1.6 | 4.8 | 0.00 | 0.00 | 0.00 | 79 | 1020.7 |
| 20260902032035 | 19 | 9 | 1.6 | 3.2 | 0.00 | 0.00 | 0.00 | 78 | 1020.6 |
| 20260902031603 | 20 | 0 | 0.0 | 3.2 | 0.00 | 0.00 | 0.00 | 78 | 1020.6 |
| 20260902031035 | 20 | 15 | 0.0 | 4.8 | 0.00 | 0.00 | 0.00 | 77 | 1020.7 |
| 20260902030535 | 20 | 23 | 0.0 | 4.8 | 0.00 | 0.00 | 0.00 | 77 | 1020.8 |
| 20260902030054 | 20 | 16 | 1.6 | 4.8 | 0.00 | 0.00 | 0.00 | 77 | 1020.7 |
| 20260902025535 | 20 | 13 | 1.6 | 4.8 | 0.00 | 0.00 | 0.00 | 77 | 1020.7 |
| 20260902025035 | 20 | 0 | 0.0 | 4.8 | 0.00 | 0.00 | 0.00 | 76 | 1020.7 |
| 20260902024603 | 20 | 24 | 1.6 | 4.8 | 0.00 | 0.00 | 0.00 | 77 | 1020.8 |
| 20260902024034 | 20 | 355 | 1.6 | 4.8 | 0.00 | 0.00 | 0.00 | 77 | 1020.8 |
| 20260902023534 | 20 | 43 | 0.0 | 8.0 | 0.00 | 0.00 | 0.00 | 77 | 1020.7 |
| 20260902023055 | 20 | 30 | 1.6 | 8.0 | 0.00 | 0.00 | 0.00 | 77 | 1020.7 |
| 20260902022630 | 20 | 38 | 3.2 | 8.0 | 0.00 | 0.00 | 0.00 | 77 | 1020.8 |
| 20260902022035 | 20 | 43 | 3.2 | 9.7 | 0.00 | 0.00 | 0.00 | 78 | 1020.7 |
| 20260902021556 | 20 | 71 | 3.2 | 9.7 | 0.00 | 0.00 | 0.00 | 78 | 1020.8 |
| 20260902021035 | 20 | 30 | 1.6 | 3.2 | 0.00 | 0.00 | 0.00 | 78 | 1020.8 |
| 20260902020535 | 20 | 121 | 0.0 | 3.2 | 0.00 | 0.00 | 0.00 | 78 | 1020.8 |
| 20260902020113 | 20 | 0 | 0.0 | 3.2 | 0.00 | 0.00 | 0.00 | 78 | 1020.6 |
| 20260902015534 | 20 | 0 | 0.0 | 4.8 | 0.00 | 0.00 | 0.00 | 78 | 1020.6 |
| 20260902015034 | 20 | 5 | 0.0 | 4.8 | 0.00 | 0.00 | 0.00 | 78 | 1020.6 |
| 20260902014559 | 20 | 21 | 1.6 | 4.8 | 0.00 | 0.00 | 0.00 | 79 | 1020.7 |
| 20260902014035 | 20 | 355 | 0.0 | 4.8 | 0.00 | 0.00 | 0.00 | 79 | 1020.8 |
| 20260902013534 | 20 | 355 | 1.6 | 4.8 | 0.00 | 0.00 | 0.00 | 78 | 1020.6 |
| 20260902013054 | 20 | 343 | 1.6 | 4.8 | 0.00 | 0.00 | 0.00 | 78 | 1020.7 |
| 20260902012535 | 20 | 0 | 1.6 | 4.8 | 0.00 | 0.00 | 0.00 | 78 | 1020.6 |
| 20260902012035 | 20 | 346 | 1.6 | 4.8 | 0.00 | 0.00 | 0.00 | 79 | 1020.7 |
| 20260902011552 | 20 | 0 | 0.0 | 3.2 | 0.00 | 0.00 | 0.00 | 79 | 1020.7 |
| 20260902011035 | 20 | 0 | 1.6 | 3.2 | 0.00 | 0.00 | 0.00 | 79 | 1020.7 |
| 20260902010535 | 20 | 360 | 1.6 | 3.2 | 0.00 | 0.00 | 0.00 | 79 | 1020.6 |
| 20260902010052 | 20 | 355 | 1.6 | 3.2 | 0.00 | 0.00 | 0.00 | 79 | 1020.8 |
| 20260902005538 | 20 | 355 | 0.0 | 3.2 | 0.00 | 0.00 | 0.00 | 79 | 1020.8 |
| 20260902005035 | 20 | 350 | 1.6 | 3.2 | 0.00 | 0.00 | 0.00 | 79 | 1020.7 |
| 20260902004554 | 20 | 329 | 1.6 | 4.8 | 0.00 | 0.00 | 0.00 | 79 | 1020.7 |
| 20260902004034 | 20 | 15 | 1.6 | 4.8 | 0.00 | 0.00 | 0.00 | 79 | 1020.8 |
| 20260902003535 | 20 | 330 | 1.6 | 3.2 | 0.00 | 0.00 | 0.00 | 78 | 1020.8 |
| 20260902003104 | 20 | 10 | 1.6 | 3.2 | 0.00 | 0.00 | 0.00 | 78 | 1020.9 |
| 20260902002535 | 20 | 355 | 0.0 | 3.2 | 0.00 | 0.00 | 0.00 | 78 | 1020.9 |
| 20260902002035 | 20 | 0 | 0.0 | 3.2 | 0.00 | 0.00 | 0.00 | 78 | 1020.9 |
| 20260902001554 | 20 | 0 | 0.0 | 3.2 | 0.00 | 0.00 | 0.00 | 78 | 1020.9 |
| 20260902001034 | 20 | 0 | 0.0 | 3.2 | 0.00 | 0.00 | 0.00 | 77 | 1020.9 |
| 20260902000537 | 20 | 288 | 0.0 | 1.6 | 0.00 | 0.00 | 0.00 | 78 | 1020.9 |
| 20260902000052 | 20 | 0 | 0.0 | 1.6 | 0.00 | 0.00 | 0.00 | 77 | 1020.8 |
| 20260901235536 | 20 | 0 | 0.0 | 1.6 | 0.00 | 0.00 | 0.00 | 76 | 1020.8 |
| 20260901235035 | 20 | 0 | 0.0 | 1.6 | 0.00 | 0.00 | 0.00 | 76 | 1020.8 |
| 20260901234603 | 20 | 0 | 0.0 | 1.6 | 0.00 | 0.00 | 0.00 | 77 | 1020.8 |
| 20260901234034 | 20 | 0 | 0.0 | 3.2 | 0.00 | 0.00 | 0.00 | 77 | 1020.7 |
| 20260901233535 | 20 | 0 | 0.0 | 4.8 | 0.00 | 0.00 | 0.00 | 77 | 1020.7 |
| 20260901233103 | 20 | 0 | 1.6 | 4.8 | 0.00 | 0.00 | 0.00 | 77 | 1020.7 |
| 20260901232536 | 20 | 352 | 1.6 | 4.8 | 0.00 | 0.00 | 0.00 | 77 | 1020.7 |
| 20260901232035 | 21 | 325 | 1.6 | 4.8 | 0.00 | 0.00 | 0.00 | 77 | 1020.6 |
| 20260901231553 | 21 | 355 | 0.0 | 4.8 | 0.00 | 0.00 | 0.00 | 77 | 1020.7 |
| 20260901231035 | 21 | 346 | 0.0 | 4.8 | 0.00 | 0.00 | 0.00 | 77 | 1020.8 |
| 20260901230535 | 21 | 344 | 1.6 | 4.8 | 0.00 | 0.00 | 0.00 | 77 | 1020.7 |
| 20260901230105 | 21 | 334 | 0.0 | 4.8 | 0.00 | 0.00 | 0.00 | 77 | 1020.7 |
| 20260901225538 | 20 | 321 | 1.6 | 4.8 | 0.00 | 0.00 | 0.00 | 77 | 1020.8 |
| 20260901225034 | 20 | 16 | 1.6 | 4.8 | 0.00 | 0.00 | 0.00 | 78 | 1020.9 |
| 20260901224553 | 21 | 5 | 0.0 | 4.8 | 0.00 | 0.00 | 0.00 | 78 | 1020.8 |
| 20260901224036 | 21 | 344 | 1.6 | 4.8 | 0.00 | 0.00 | 0.00 | 77 | 1020.9 |
| 20260901223534 | 21 | 5 | 1.6 | 4.8 | 0.00 | 0.00 | 0.00 | 77 | 1020.9 |
| 20260901223101 | 21 | 350 | 1.6 | 4.8 | 0.00 | 0.00 | 0.00 | 77 | 1020.8 |
| 20260901222536 | 21 | 5 | 1.6 | 4.8 | 0.00 | 0.00 | 0.00 | 76 | 1020.8 |
| 20260901222036 | 21 | 14 | 1.6 | 4.8 | 0.00 | 0.00 | 0.00 | 77 | 1020.8 |
| 20260901221618 | 21 | 15 | 3.2 | 4.8 | 0.00 | 0.00 | 0.00 | 76 | 1020.8 |
| 20260901221035 | 21 | 17 | 1.6 | 4.8 | 0.00 | 0.00 | 0.00 | 76 | 1020.8 |
| 20260901220534 | 21 | 355 | 3.2 | 4.8 | 0.00 | 0.00 | 0.00 | 76 | 1020.8 |
| 20260901220054 | 21 | 28 | 3.2 | 4.8 | 0.00 | 0.00 | 0.00 | 76 | 1020.8 |
| 20260901215535 | 21 | 17 | 1.6 | 4.8 | 0.00 | 0.00 | 0.00 | 75 | 1020.8 |
| 20260901215035 | 21 | 5 | 1.6 | 4.8 | 0.00 | 0.00 | 0.00 | 75 | 1020.8 |
| 20260901214559 | 21 | 5 | 1.6 | 4.8 | 0.00 | 0.00 | 0.00 | 75 | 1020.8 |
| 20260901214034 | 21 | 329 | 1.6 | 4.8 | 0.00 | 0.00 | 0.00 | 74 | 1020.7 |
| 20260901213535 | 22 | 45 | 1.6 | 4.8 | 0.00 | 0.00 | 0.00 | 74 | 1020.8 |
| 20260901213105 | 22 | 355 | 1.6 | 4.8 | 0.00 | 0.00 | 0.00 | 74 | 1020.7 |
| 20260901212534 | 22 | 0 | 1.6 | 4.8 | 0.00 | 0.00 | 0.00 | 73 | 1020.7 |
| 20260901212035 | 22 | 0 | 0.0 | 4.8 | 0.00 | 0.00 | 0.00 | 73 | 1020.7 |
| 20260901211556 | 22 | 0 | 1.6 | 4.8 | 0.00 | 0.00 | 0.00 | 73 | 1020.8 |
| 20260901211034 | 22 | 15 | 1.6 | 4.8 | 0.00 | 0.00 | 0.00 | 72 | 1020.7 |
| 20260901210534 | 22 | 323 | 0.0 | 6.4 | 0.00 | 0.00 | 0.00 | 73 | 1020.7 |
| 20260901205535 | 22 | 22 | 3.2 | 4.8 | 0.00 | 0.00 | 0.00 | 73 | 1020.7 |
| 20260901205034 | 22 | 5 | 1.6 | 4.8 | 0.00 | 0.00 | 0.00 | 72 | 1020.7 |
| 20260901204602 | 22 | 96 | 0.0 | 3.2 | 0.00 | 0.00 | 0.00 | 72 | 1020.7 |
| 20260901204034 | 22 | 0 | 0.0 | 3.2 | 0.00 | 0.00 | 0.00 | 73 | 1020.6 |
| 20260901203534 | 22 | 0 | 0.0 | 3.2 | 0.00 | 0.00 | 0.00 | 72 | 1020.4 |
| 20260901203104 | 22 | 0 | 0.0 | 4.8 | 0.00 | 0.00 | 0.00 | 72 | 1020.4 |
| 20260901202533 | 22 | 28 | 0.0 | 4.8 | 0.00 | 0.00 | 0.00 | 70 | 1020.4 |
| 20260901202034 | 22 | 36 | 3.2 | 4.8 | 0.00 | 0.00 | 0.00 | 71 | 1020.4 |
| 20260901201604 | 23 | 5 | 0.0 | 4.8 | 0.00 | 0.00 | 0.00 | 70 | 1020.3 |
| 20260901201035 | 23 | 0 | 0.0 | 4.8 | 0.00 | 0.00 | 0.00 | 70 | 1020.3 |
| 20260901200534 | 23 | 360 | 1.6 | 4.8 | 0.00 | 0.00 | 0.00 | 70 | 1020.3 |
| 20260901200100 | 23 | 0 | 1.6 | 4.8 | 0.00 | 0.00 | 0.00 | 68 | 1020.3 |
| 20260901195535 | 23 | 0 | 0.0 | 6.4 | 0.00 | 0.00 | 0.00 | 68 | 1020.3 |
| 20260901195035 | 23 | 0 | 1.6 | 6.4 | 0.00 | 0.00 | 0.00 | 68 | 1020.3 |
| 20260901194603 | 23 | 315 | 3.2 | 6.4 | 0.00 | 0.00 | 0.00 | 68 | 1020.1 |
| 20260901194036 | 23 | 10 | 1.6 | 6.4 | 0.00 | 0.00 | 0.00 | 69 | 1020.0 |
| 20260901193534 | 23 | 315 | 1.6 | 4.8 | 0.00 | 0.00 | 0.00 | 69 | 1020.0 |
| 20260901193107 | 23 | 333 | 1.6 | 4.8 | 0.00 | 0.00 | 0.00 | 69 | 1020.0 |
| 20260901192535 | 23 | 355 | 0.0 | 6.4 | 0.00 | 0.00 | 0.00 | 69 | 1020.0 |
| 20260901192040 | 23 | 350 | 1.6 | 6.4 | 0.00 | 0.00 | 0.00 | 68 | 1019.9 |
| 20260901191557 | 23 | 276 | 1.6 | 6.4 | 0.00 | 0.00 | 0.00 | 69 | 1019.8 |
| 20260901191035 | 23 | 0 | 0.0 | 4.8 | 0.00 | 0.00 | 0.00 | 68 | 1019.8 |
| 20260901190534 | 23 | 0 | 1.6 | 4.8 | 0.00 | 0.00 | 0.00 | 67 | 1019.6 |
| 20260901190051 | 23 | 284 | 0.0 | 4.8 | 0.00 | 0.00 | 0.00 | 67 | 1019.6 |
| 20260901185534 | 23 | 0 | 0.0 | 4.8 | 0.00 | 0.00 | 0.00 | 67 | 1019.6 |
| 20260901185034 | 23 | 0 | 0.0 | 6.4 | 0.00 | 0.00 | 0.00 | 67 | 1019.5 |
| 20260901184607 | 23 | 5 | 0.0 | 6.4 | 0.00 | 0.00 | 0.00 | 67 | 1019.4 |
| 20260901184034 | 23 | 355 | 1.6 | 6.4 | 0.00 | 0.00 | 0.00 | 67 | 1019.4 |
| 20260901183537 | 24 | 349 | 0.0 | 4.8 | 0.00 | 0.00 | 0.00 | 66 | 1019.4 |
| 20260901183058 | 24 | 0 | 0.0 | 4.8 | 0.00 | 0.00 | 0.00 | 67 | 1019.3 |
| 20260901182537 | 24 | 0 | 1.6 | 4.8 | 0.00 | 0.00 | 0.00 | 66 | 1019.2 |
| 20260901182035 | 24 | 0 | 0.0 | 4.8 | 0.00 | 0.00 | 0.00 | 67 | 1019.2 |
| 20260901181554 | 24 | 0 | 1.6 | 4.8 | 0.00 | 0.00 | 0.00 | 66 | 1019.2 |
| 20260901181035 | 24 | 317 | 0.0 | 3.2 | 0.00 | 0.00 | 0.00 | 66 | 1019.2 |
| 20260901180537 | 25 | 13 | 0.0 | 4.8 | 0.00 | 0.00 | 0.00 | 66 | 1019.2 |
| 20260901180052 | 25 | 0 | 0.0 | 4.8 | 0.00 | 0.00 | 0.00 | 66 | 1019.1 |
| 20260901175540 | 25 | 0 | 0.0 | 3.2 | 0.00 | 0.00 | 0.00 | 65 | 1019.0 |
| 20260901175036 | 25 | 352 | 0.0 | 3.2 | 0.00 | 0.00 | 0.00 | 65 | 1019.1 |
| 20260901174558 | 25 | 0 | 0.0 | 3.2 | 0.00 | 0.00 | 0.00 | 65 | 1018.9 |
| 20260901174038 | 25 | 0 | 0.0 | 3.2 | 0.00 | 0.00 | 0.00 | 65 | 1019.0 |
| 20260901173539 | 25 | 0 | 0.0 | 3.2 | 0.00 | 0.00 | 0.00 | 66 | 1019.0 |
| 20260901173054 | 25 | 0 | 0.0 | 3.2 | 0.00 | 0.00 | 0.00 | 65 | 1018.9 |
| 20260901172536 | 26 | 335 | 0.0 | 4.8 | 0.00 | 0.00 | 0.00 | 66 | 1018.9 |
| 20260901172035 | 26 | 0 | 0.0 | 6.4 | 0.00 | 0.00 | 0.00 | 65 | 1018.8 |
| 20260901171606 | 26 | 0 | 0.0 | 6.4 | 0.00 | 0.00 | 0.00 | 65 | 1018.7 |
| 20260901171035 | 26 | 272 | 0.0 | 6.4 | 0.00 | 0.00 | 0.00 | 65 | 1018.9 |
| 20260901170536 | 26 | 255 | 0.0 | 8.0 | 0.00 | 0.00 | 0.00 | 64 | 1018.8 |
| 20260901170058 | 26 | 284 | 1.6 | 8.0 | 0.00 | 0.00 | 0.00 | 63 | 1018.8 |
| 20260901165534 | 26 | 273 | 3.2 | 9.7 | 0.00 | 0.00 | 0.00 | 63 | 1018.8 |
| 20260901165035 | 26 | 279 | 3.2 | 12.9 | 0.00 | 0.00 | 0.00 | 64 | 1018.8 |
| 20260901164604 | 26 | 221 | 4.8 | 12.9 | 0.00 | 0.00 | 0.00 | 64 | 1018.7 |
| 20260901164036 | 26 | 241 | 4.8 | 12.9 | 0.00 | 0.00 | 0.00 | 63 | 1018.8 |
| 20260901163536 | 26 | 242 | 6.4 | 12.9 | 0.00 | 0.00 | 0.00 | 62 | 1018.8 |
| 20260901163119 | 26 | 220 | 3.2 | 11.3 | 0.00 | 0.00 | 0.00 | 62 | 1018.8 |
| 20260901162535 | 26 | 273 | 6.4 | 14.5 | 0.00 | 0.00 | 0.00 | 61 | 1018.8 |
| 20260901162039 | 27 | 233 | 4.8 | 14.5 | 0.00 | 0.00 | 0.00 | 60 | 1018.8 |
| 20260901161557 | 27 | 258 | 6.4 | 14.5 | 0.00 | 0.00 | 0.00 | 59 | 1018.7 |
| 20260901161040 | 27 | 233 | 6.4 | 14.5 | 0.00 | 0.00 | 0.00 | 58 | 1018.7 |
| 20260901160535 | 27 | 245 | 6.4 | 14.5 | 0.00 | 0.00 | 0.00 | 58 | 1018.8 |
| 20260901155535 | 27 | 240 | 9.7 | 17.7 | 0.00 | 0.00 | 0.00 | 57 | 1018.8 |
| 20260901155038 | 27 | 279 | 8.0 | 17.7 | 0.00 | 0.00 | 0.00 | 57 | 1018.8 |
| 20260901154552 | 28 | 257 | 9.7 | 17.7 | 0.00 | 0.00 | 0.00 | 56 | 1018.8 |
| 20260901154035 | 28 | 261 | 9.7 | 16.1 | 0.00 | 0.00 | 0.00 | 54 | 1018.9 |